This demonstration page uses our WeatherBlox Daily Observations layout. Learn more.

Left ArrowRight Arrow

39.51506, -84.39828

Hourly Observations for October 12, 2020

Temp ( °F °C ) Dew Point ( °F °C ) Humidity (%) Winds ( mph kmh ) Pressure ( in mb ) Visibility ( mi km ) Precip ( " mm )
12:15 am 00:15 Cloudy 67 19.6 64 17.5 88 88 ESE 8 13 29.9 1012 10 16.0934 0 0
12:35 am 00:35 Mostly Cloudy 67 19.3 64 17.5 89 89 E 8 13 29.89 1012 10 16.0934 0 0
12:55 am 00:55 Partly Cloudy 66 18.8 63 17.3 91 91 E 6 9 29.89 1012 10 16.0934 0 0
1:15 am 01:15 Mostly Cloudy 65 18.4 63 17.2 93 93 ESE 3 6 29.89 1012 10 16.0934 0 0
1:35 am 01:35 Mostly Cloudy 64 18 63 17.1 95 95 ESE 3 6 29.89 1012 10 16.0934 0 0
1:55 am 01:55 Partly Cloudy 64 17.5 62 16.9 96 96 Calm 29.89 1012 10 16.0934 0 0
2:15 am 02:15 Cloudy 62 16.9 62 16.5 98 98 Calm 29.88 1012 7 11.26538 0 0
2:35 am 02:35 Partly Cloudy 62 16.9 62 16.7 99 99 Calm 29.87 1012 7 11.26538 0 0
2:55 am 02:55 Partly Cloudy with Mist and Fog 61 16.1 61 15.9 99 99 Calm 29.87 1012 7 11.26538 0 0
3:15 am 03:15 Cloudy 63 17 61 16 94 94 Calm 29.88 1012 7 11.26538 0 0
3:35 am 03:35 Cloudy with Mist and Fog 63 17 63 17 100 100 Calm 29.88 1012 7 11.26538 0 0
3:55 am 03:55 Cloudy 63 17.3 63 17.3 100 100 Calm 29.87 1012 7 11.26538 0 0
4:15 am 04:15 Cloudy with Mist and Fog 63 17.4 63 17.3 99 99 Calm 29.86 1011 7 11.26538 0 0
4:35 am 04:35 Cloudy 64 17.5 63 17.4 99 99 ESE 5 7 29.86 1011 7 11.26538 0 0
4:55 am 04:55 Cloudy 63 17.2 63 17.2 100 100 E 3 6 29.85 1011 7 11.26538 0 0
5:15 am 05:15 Cloudy 64 17.5 63 17.3 99 99 ENE 3 6 29.86 1011 10 16.0934 0 0
5:35 am 05:35 Cloudy 64 17.8 63 17.4 98 98 Calm 29.86 1011 10 16.0934 0 0
5:55 am 05:55 Cloudy 64 17.9 64 17.5 98 98 Calm 29.86 1011 10 16.0934 0 0
6:15 am 06:15 Cloudy 64 17.8 64 17.5 98 98 Calm 29.87 1012 10 16.0934 0 0
6:35 am 06:35 Cloudy 64 17.6 64 17.5 99 99 ESE 5 7 29.86 1011 7 11.26538 0 0
6:55 am 06:55 Cloudy 64 17.7 64 17.5 99 99 ESE 5 7 29.86 1011 10 16.0934 0 0
7:15 am 07:15 Cloudy 64 17.7 64 17.5 99 99 ESE 3 6 29.85 1011 10 16.0934 0 0
7:35 am 07:35 Cloudy 64 18 64 17.7 98 98 ESE 3 6 29.85 1011 10 16.0934 0 0
7:55 am 07:55 Cloudy 65 18.3 64 17.7 96 96 Calm 29.86 1011 10 16.0934 0 0
8:15 am 08:15 Cloudy 65 18.6 64 17.8 95 95 Calm 29.86 1011 10 16.0934 0 0
8:35 am 08:35 Cloudy 66 18.8 64 17.8 94 94 S 3 6 29.86 1011 10 16.0934 0 0
8:55 am 08:55 Cloudy 66 19 64 17.8 93 93 S 5 7 29.86 1011 10 16.0934 0 0
9:15 am 09:15 Cloudy 66 19 64 17.7 92 92 SSW 5 7 29.87 1011 10 16.0934 0 0
9:35 am 09:35 Cloudy 67 19.2 64 17.7 91 91 SSW 6 9 29.87 1011 10 16.0934 0 0
9:55 am 09:55 Cloudy 67 19.3 63 17.4 89 89 SSW 8 13 29.86 1011 10 16.0934 0 0
10:15 am 10:15 Cloudy 67 19.4 63 17.4 88 88 SW 10 17 29.86 1011 10 16.0934 0 0
10:35 am 10:35 Cloudy 67 19.2 63 17.4 89 89 SW 10 17 29.87 1011 10 16.0934 0 0
10:55 am 10:55 Cloudy 67 19.3 63 17.3 88 88 SW 10 17 29.87 1011 10 16.0934 0 0
11:15 am 11:15 Cloudy 67 19.4 63 17.4 88 88 SW 9 15 29.88 1012 10 16.0934 0 0
11:35 am 11:35 Cloudy 67 19.6 64 17.6 88 88 SW 7 11 29.87 1011 10 16.0934 0 0
11:55 am 11:55 Cloudy 69 20.3 64 17.8 86 86 SW 6 9 29.85 1011 10 16.0934 0 0
12:15 pm 12:15 Cloudy 68 20.2 64 17.6 85 85 SW 7 11 29.85 1011 10 16.0934 0 0
12:35 pm 12:35 Cloudy 69 20.3 64 17.6 85 85 WSW 9 15 29.84 1011 10 16.0934 0 0
12:55 pm 12:55 Cloudy 68 20.1 64 17.8 87 87 SW 9 15 29.83 1010 10 16.0934 0 0
1:15 pm 13:15 Cloudy 69 20.5 64 17.7 84 84 WSW 9 15 29.82 1010 10 16.0934 0 0
1:55 pm 13:55 Cloudy 71 21.5 64 17.8 80 80 SW 14 22 29.79 1009 10 16.0934 0 0
2:15 pm 14:15 Cloudy 71 21.7 64 17.7 78 78 SW 9 15 29.78 1008 10 16.0934 0 0
2:35 pm 14:35 Cloudy 71 21.9 64 17.8 78 78 WSW 10 17 29.76 1008 10 16.0934 0 0
2:55 pm 14:55 Cloudy 73 22.5 64 17.6 74 74 WSW 13 20 29.75 1007 10 16.0934 0 0
3:15 pm 15:15 Cloudy 74 23.1 64 17.6 71 71 WSW 10 17 29.74 1007 10 16.0934 0 0
3:35 pm 15:35 Cloudy 74 23.3 64 17.7 71 71 SSW 12 19 29.73 1007 10 16.0934 0 0
3:55 pm 15:55 Cloudy 74 23.6 64 17.6 69 69 SSW 14 22 29.73 1007 10 16.0934 0 0
4:15 pm 16:15 Cloudy 74 23.2 63 17.4 70 70 SW 17 28 29.73 1007 10 16.0934 0 0
4:35 pm 16:35 Cloudy 74 23.2 64 17.6 71 71 WSW 10 17 29.73 1007 10 16.0934 0 0
4:55 pm 16:55 Cloudy 73 22.9 64 17.7 73 73 WSW 9 15 29.74 1007 10 16.0934 0 0
5:15 pm 17:15 Cloudy 74 23.6 65 18.1 71 71 SW 10 17 29.75 1007 10 16.0934 0 0
5:35 pm 17:35 Cloudy 74 23.3 64 17.9 72 72 WSW 8 13 29.74 1007 10 16.0934 0 0
5:55 pm 17:55 Cloudy 74 23.2 64 17.8 72 72 WSW 10 17 29.74 1007 10 16.0934 0 0
6:15 pm 18:15 Cloudy 74 23.2 64 17.7 71 71 SW 7 11 29.74 1007 10 16.0934 0 0
6:35 pm 18:35 Cloudy 74 23.1 64 17.9 73 73 SW 8 13 29.73 1007 10 16.0934 0 0
6:55 pm 18:55 Cloudy 73 23 64 17.9 73 73 SW 8 13 29.73 1007 10 16.0934 0 0
7:15 pm 19:15 Cloudy 74 23.1 64 17.6 71 71 WSW 9 15 29.73 1007 10 16.0934 0 0
7:35 pm 19:35 Cloudy 74 23.2 64 17.6 71 71 WSW 10 17 29.73 1007 10 16.0934 0 0
7:55 pm 19:55 Cloudy 74 23.2 64 17.6 71 71 SW 9 15 29.73 1007 10 16.0934 0 0
8:15 pm 20:15 Cloudy with Thunderstorms 74 23.1 64 17.8 72 72 WSW 8 13 29.73 1007 10 16.0934 0 0
8:35 pm 20:35 Cloudy with Heavy Thunderstorms 59 15.1 58 14.5 96 96 NNW 21 33 29.83 1010 2.5 4.02335 0.39 9.906
8:55 pm 20:55 Cloudy with Light Rain 58 14.4 56 13.5 94 94 N 16 26 29.86 1011 10 16.0934 0.41 10.414
9:15 pm 21:15 Cloudy with Light Rain 57 13.9 55 12.9 94 94 N 13 20 29.88 1012 10 16.0934 0.01 0.254
9:35 pm 21:35 Cloudy 56 13.6 54 12 90 90 N 6 9 29.9 1013 10 16.0934 0.01 0.254
9:55 pm 21:55 Cloudy 56 13.5 54 12 91 91 NNE 7 11 29.9 1013 10 16.0934 0.01 0.254
10:15 pm 22:15 Cloudy 56 13.5 54 12 91 91 N 6 9 29.92 1013 10 16.0934 0 0
10:35 pm 22:35 Cloudy 56 13.6 54 12 90 90 N 6 9 29.93 1014 10 16.0934 0 0
10:55 pm 22:55 Cloudy 56 13.6 53 11.7 88 88 N 5 7 29.95 1014 10 16.0934 0 0
11:15 pm 23:15 Cloudy 56 13.3 53 11.4 88 88 N 5 7 29.96 1015 10 16.0934 0 0
11:35 pm 23:35 Cloudy 56 13.2 52 11.1 87 87 N 8 13 29.97 1015 10 16.0934 0 0
11:55 pm 23:55 Mostly Cloudy 55 13 51 10.7 86 86 N 12 19 29.97 1015 10 16.0934 0 0

Powered by AerisWeather